Terminal Aerodrome Forecast
Issued by NWS Flagstaff, AZ

Home | Current Version | Previous Version | Text Only | Print | Product List | Glossary On
Versions: 1 2 3 4 5 6 7 8 9 10 11 12 13 14
000
FTUS45 KFGZ 230115 AAA
TAFINW
TAF AMD
KINW 230115Z 2301/2324 20020G30KT P6SM SCT080
     FM230400 22010KT P6SM SCT080
     FM231800 24012G22KT P6SM BKN070=

USA.gov is the U.S. government's official web portal to all federal, state and local government web resources and services.